Regional Weather Roundup
Issued by NWS Jackson, KY

Home | Current Version | Previous Version | Text Only | Print | Product List | Glossary Off
Versions: 1 2 3 4 5 6 7 8 9 10 11 12 13 14 15 16 17 18 19 20 21 22 23 24 25 26 27 28 29 30 31 32 33 34 35 36 37 38 39 40 41 42 43 44 45 46 47 48 49 50

000
ASUS43 KJKL 291419
RWRJKL

EAST KENTUCKY HOURLY WEATHER ROUNDUP
NATIONAL WEATHER SERVICE JACKSON KY
1000 AM EDT TUE JUL 29 2014

NOTE: "FAIR" INDICATES FEW OR NO CLOUDS BELOW 12,000 FEET WITH
NO SIGNIFICANT WEATHER AND/OR OBSTRUCTIONS TO VISIBILITY.

* THESE REPORTS ARE NOT UNDER NWS QUALITY CONTROL AND MAY NOT
  REPORT WEATHER SUCH AS PRECIPITATION AND FOG.

KYZ079-080-083-085-087-088-110-112-115-119-120-291500
...EASTERN KENTUCKY...

CITY           SKY/WX    TMP DP  RH WIND       PRES   REMARKS
JACKSON        PTSUNNY   60  53  77 CALM      30.06R
LONDON         SUNNY     63  53  70 W6        30.06S
SOMERSET*      SUNNY     61  50  67 N7        30.09R
MONTICELLO*    SUNNY     65  53  65 N6        30.09S
WILLIAMSBURG*  CLOUDY    59  55  88 CALM        N/A
MIDDLESBORO*   PTSUNNY   64  55  73 CALM      30.06S
HARLAN APT*    CLOUDY    63  54  72 MISG      30.06R
HAZARD APT*    CLOUDY    61  54  77 CALM      30.06R
BLACK MTN*       N/A     57  50  77 NE1         N/A
PIKEVILLE APT* CLOUDY    63  57  82 W3        30.04S
BIG SANDY*     CLOUDY    60  57  88 W3        30.04S
MOREHEAD APT*  CLOUDY    57  54  88 NW6       30.08R
ASHLAND*       CLOUDY    61  54  77 CALM      30.02R
$$

KYZ035-036-041-042-044-050-067-078-099-291500
...CENTRAL KENTUCKY...

CITY           SKY/WX    TMP DP  RH WIND       PRES   REMARKS
MT STERLING*   MOSUNNY   59  54  82 N6        30.08R
FLEMING/MASON* CLOUDY    59  54  85 CALM      30.07R
DANVILLE*      SUNNY     61  52  72 N7        30.09S
RICHMOND*      MOSUNNY   59  52  77 NW3       30.07S
LEXINGTON      SUNNY     61  53  75 NW8       30.07S
FRANKFORT      SUNNY     59  52  77 NW5       30.07R
$$

KYZ091>093-OHZ055-061-077-WVZ005-015-034-035-042-291500
...SOUTHERN OHIO/WEST VIRGINIA...

CITY           SKY/WX    TMP DP  RH WIND       PRES   REMARKS
COVINGTON      MOSUNNY   60  53  77 N6        30.07R
COLUMBUS       CLOUDY    64  53  67 NE6       30.04R
DAYTON         SUNNY     62  50  64 N7        30.07S
WILMINGTON     CLOUDY    60  54  80 NW8       30.06R
HUNTINGTON     CLOUDY    59  56  89 VRB3      30.03R
CHARLESTON     DRIZZLE   60  59  96 SW6       30.02R FOG
PINEVILLE*     PTSUNNY   65  62  90 MISG      30.08S
BECKLEY        MOSUNNY   62  55  77 W7        30.04S
BLUEFIELD      PTSUNNY   64  53  67 W6        30.06S
$$

VAZ002-007-008-TNZ017-027-036-066-071-291500
...SOUTHWEST VIRGINIA/EAST TENNESSEE...

CITY           SKY/WX    TMP DP  RH WIND       PRES   REMARKS
WISE*          PTSUNNY   63  54  72 W3        30.08R
JONESVILLE*    SUNNY     66  54  63 CALM      30.07S
ABINGDON*      MOSUNNY   68  55  62 W5        30.05S
BRISTOL        PTSUNNY   67  57  70 CALM      30.04S
KNOXVILLE      PTSUNNY   68  59  73 N6        30.03R
OAK RIDGE      PTSUNNY   67  57  70 E5        30.05R
CROSSVILLE     PTSUNNY   67  56  67 NW9       30.08S
NASHVILLE      SUNNY     67  50  54 N13       30.11R
$$

...KEY TO REMARKS...
VSB - VISIBILITY IN MILES
WCI - WIND CHILL INDEX
HX  - HEAT INDEX

$$



USA.gov is the U.S. government's official web portal to all federal, state and local government web resources and services.